QPF
0.00 0.00 0.01 0.02 0.02 0.02 0.05 0.04 0.04 0.08 0.09 0.08 0.08 0.09 0.09 0.07 0.05 0.05 0.06 0.05 0.03 0.04 0.03 0.03 0.03 0.07 0.05 0.05 0.06 0.05 0.06 0.07 0.06 0.05 0.06 0.06 0.05 0.06 0.07 0.08 0.08 0.05 0.04 0.04
0.00 0.00 0.01 0.02 0.02 0.01 0.03 0.03 0.04 0.06 0.06 0.05 0.05 0.09 0.12 0.09 0.08 0.07 0.04 0.06 0.04 0.04 0.03 0.06 0.10 0.11 0.09 0.05 0.04 0.03 0.04 0.05 0.05 0.05 0.06 0.04 0.04 0.04 0.04 0.05 0.05 0.05 0.04 0.04
0.00 0.00 0.00 0.00 0.01 0.01 0.02 0.03 0.05 0.05 0.04 0.05 0.05 0.08 0.08 0.07 0.07 0.08 0.05 0.04 0.04 0.04 0.04 0.10 0.18 0.16 0.10 0.09 0.07 0.05 0.05 0.06 0.06 0.05 0.04 0.04 0.05 0.05 0.05 0.04 0.04 0.05 0.05 0.04
0.00 0.00 0.00 0.00 0.01 0.01 0.02 0.02 0.02 0.02 0.02 0.05 0.04 0.06 0.05 0.06 0.07 0.09 0.08 0.05 0.05 0.06 0.07 0.09 0.10 0.11 0.10 0.10 0.09 0.08 0.07 0.06 0.04 0.03 0.04 0.05 0.04 0.03 0.03 0.03 0.04 0.04 0.05 0.04
0.00 0.00 0.00 0.01 0.01 0.01 0.01 0.01 0.01 0.01 0.01 0.04 0.04 0.04 0.08 0.08 0.08 0.11 0.12 0.10 0.12 0.10 0.08 0.07 0.09 0.09 0.08 0.08 0.08 0.08 0.06 0.04 0.03 0.02 0.01 0.02 0.02 0.02 0.02 0.02 0.02 0.02 0.02 0.02
0.00 0.00 0.00 0.01 0.01 0.01 0.01 0.01 0.02 0.01 0.01 0.03 0.03 0.03 0.10 0.09 0.11 0.11 0.10 0.09 0.09 0.07 0.07 0.08 0.11 0.11 0.09 0.09 0.08 0.06 0.04 0.03 0.02 0.02 0.02 0.02 0.01 0.02 0.02 0.02 0.02 0.02 0.01 0.01
0.00 0.00 0.00 0.00 0.00 0.00 0.01 0.01 0.02 0.01 0.02 0.02 0.02 0.03 0.08 0.08 0.08 0.08 0.08 0.08 0.05 0.05 0.05 0.06 0.10 0.10 0.13 0.13 0.08 0.07 0.05 0.03 0.02 0.03 0.02 0.02 0.02 0.02 0.02 0.02 0.02 0.02 0.01 0.01
0.00 0.00 0.00 0.00 0.00 0.00 0.00 0.01 0.02 0.02 0.01 0.02 0.02 0.05 0.07 0.07 0.08 0.07 0.05 0.04 0.04 0.06 0.06 0.08 0.09 0.09 0.11 0.13 0.10 0.09 0.07 0.05 0.05 0.04 0.03 0.02 0.02 0.02 0.02 0.02 0.02 0.02 0.02 0.02
0.01 0.00 0.00 0.00 0.00 0.00 0.00 0.01 0.02 0.01 0.02 0.02 0.04 0.07 0.08 0.07 0.06 0.05 0.04 0.03 0.04 0.06 0.07 0.09 0.10 0.10 0.09 0.09 0.08 0.06 0.06 0.06 0.05 0.06 0.04 0.03 0.02 0.02 0.02 0.03 0.03 0.03 0.03 0.03
0.01 0.00 0.00 0.00 0.00 0.00 0.00 0.01 0.01 0.01 0.02 0.04 0.06 0.06 0.09 0.09 0.07 0.05 0.04 0.04 0.05 0.06 0.06 0.07 0.08 0.10 0.08 0.06 0.05 0.05 0.06 0.07 0.07 0.06 0.05 0.04 0.04 0.04 0.04 0.04 0.04 0.05 0.05 0.05
0.02 0.01 0.00 0.00 0.01 0.01 0.00 0.00 0.01 0.01 0.02 0.03 0.05 0.05 0.05 0.06 0.08 0.06 0.06 0.08 0.08 0.04 0.04 0.05 0.05 0.04 0.04 0.04 0.03 0.04 0.05 0.05 0.05 0.04 0.04 0.06 0.07 0.07 0.05 0.05 0.06 0.07 0.07 0.06
0.01 0.01 0.01 0.01 0.01 0.01 0.01 0.01 0.02 0.03 0.04 0.03 0.03 0.05 0.04 0.05 0.10 0.09 0.08 0.09 0.07 0.04 0.03 0.04 0.05 0.04 0.04 0.03 0.02 0.02 0.03 0.03 0.03 0.03 0.04 0.06 0.06 0.07 0.06 0.06 0.06 0.06 0.06 0.05
0.00 0.00 0.01 0.02 0.02 0.01 0.01 0.01 0.02 0.02 0.03 0.04 0.05 0.06 0.06 0.06 0.07 0.09 0.07 0.04 0.04 0.03 0.03 0.02 0.04 0.06 0.04 0.02 0.02 0.02 0.03 0.03 0.04 0.04 0.04 0.06 0.07 0.07 0.06 0.05 0.05 0.04 0.05 0.06
0.00 0.00 0.01 0.02 0.02 0.01 0.01 0.02 0.02 0.02 0.02 0.02 0.04 0.05 0.05 0.06 0.05 0.05 0.03 0.03 0.03 0.04 0.03 0.03 0.03 0.02 0.02 0.02 0.02 0.02 0.02 0.02 0.03 0.03 0.04 0.06 0.07 0.06 0.06 0.05 0.04 0.03 0.03 0.04
0.00 0.01 0.01 0.01 0.01 0.01 0.02 0.02 0.01 0.01 0.02 0.03 0.03 0.05 0.06 0.05 0.04 0.04 0.03 0.03 0.04 0.05 0.05 0.04 0.03 0.02 0.02 0.02 0.02 0.01 0.01 0.00 0.01 0.02 0.03 0.04 0.06 0.06 0.06 0.05 0.04 0.04 0.04 0.05
0.01 0.01 0.01 0.01 0.01 0.02 0.02 0.01 0.01 0.01 0.02 0.02 0.04 0.04 0.03 0.02 0.02 0.03 0.04 0.04 0.06 0.06 0.05 0.04 0.03 0.02 0.01 0.01 0.01 0.01 0.01 0.01 0.01 0.02 0.03 0.03 0.04 0.05 0.06 0.07 0.06 0.08 0.08 0.08
0.01 0.02 0.03 0.02 0.01 0.02 0.02 0.01 0.01 0.02 0.02 0.03 0.04 0.03 0.04 0.03 0.02 0.02 0.03 0.06 0.07 0.06 0.05 0.04 0.03 0.01 0.01 0.01 0.01 0.01 0.01 0.01 0.02 0.02 0.02 0.03 0.04 0.06 0.07 0.09 0.08 0.10 0.10 0.11
0.03 0.04 0.05 0.03 0.03 0.04 0.02 0.01 0.01 0.02 0.03 0.02 0.02 0.02 0.02 0.02 0.02 0.02 0.02 0.02 0.02 0.02 0.02 0.01 0.01 0.01 0.01 0.01 0.01 0.02 0.01 0.01 0.02 0.02 0.02 0.02 0.04 0.07 0.06 0.05 0.06 0.07 0.08 0.10
0.02 0.03 0.03 0.04 0.04 0.04 0.02 0.01 0.02 0.03 0.03 0.01 0.01 0.01 0.01 0.02 0.02 0.02 0.03 0.05 0.07 0.05 0.02 0.01 0.01 0.02 0.02 0.02 0.01 0.01 0.02 0.01 0.01 0.02 0.01 0.01 0.02 0.05 0.05 0.03 0.03 0.04 0.05 0.06
0.02 0.02 0.02 0.03 0.04 0.05 0.03 0.02 0.02 0.03 0.03 0.01 0.01 0.01 0.02 0.02 0.01 0.03 0.06 0.08 0.07 0.07 0.04 0.02 0.02 0.02 0.02 0.02 0.01 0.02 0.01 0.01 0.01 0.01 0.01 0.01 0.02 0.04 0.04 0.03 0.02 0.03 0.04 0.03
0.03 0.03 0.03 0.04 0.04 0.04 0.03 0.03 0.02 0.03 0.04 0.04 0.02 0.02 0.02 0.02 0.02 0.03 0.04 0.06 0.06 0.07 0.04 0.03 0.02 0.01 0.02 0.02 0.02 0.01 0.01 0.01 0.01 0.00 0.00 0.00 0.02 0.04 0.04 0.02 0.02 0.02 0.02 0.01
0.04 0.03 0.05 0.08 0.08 0.08 0.04 0.03 0.03 0.04 0.05 0.04 0.03 0.03 0.02 0.02 0.03 0.03 0.05 0.07 0.08 0.10 0.05 0.03 0.02 0.01 0.01 0.02 0.03 0.01 0.01 0.01 0.01 0.00 0.00 0.01 0.02 0.04 0.04 0.01 0.02 0.01 0.01 0.01
0.03 0.04 0.06 0.07 0.09 0.09 0.04 0.04 0.05 0.05 0.03 0.03 0.03 0.03 0.02 0.02 0.02 0.02 0.02 0.04 0.10 0.09 0.06 0.03 0.02 0.01 0.01 0.03 0.03 0.02 0.01 0.00 0.00 0.01 0.01 0.01 0.02 0.05 0.05 0.02 0.01 0.01 0.02 0.02
0.03 0.03 0.04 0.04 0.07 0.08 0.04 0.05 0.05 0.04 0.03 0.03 0.02 0.02 0.02 0.03 0.02 0.03 0.03 0.03 0.07 0.08 0.06 0.05 0.03 0.02 0.02 0.03 0.03 0.02 0.01 0.00 0.00 0.01 0.02 0.02 0.02 0.05 0.04 0.02 0.01 0.01 0.01 0.01
0.02 0.02 0.03 0.04 0.05 0.06 0.03 0.03 0.03 0.03 0.04 0.03 0.02 0.02 0.02 0.02 0.02 0.03 0.03 0.04 0.06 0.07 0.07 0.05 0.03 0.02 0.02 0.02 0.01 0.01 0.01 0.00 0.01 0.01 0.01 0.02 0.02 0.04 0.03 0.01 0.00 0.00 0.00 0.00
0.02 0.02 0.02 0.03 0.06 0.08 0.05 0.04 0.04 0.04 0.05 0.04 0.03 0.03 0.03 0.03 0.03 0.03 0.03 0.04 0.06 0.08 0.07 0.06 0.04 0.02 0.02 0.03 0.01 0.00 0.00 0.00 0.01 0.01 0.01 0.01 0.02 0.02 0.01 0.01 0.00 0.00 0.00 0.00
MSLP
1010.96 1011.08 1011.06 1010.98 1010.97 1011.15 1011.56 1012.23 1013.07 1013.95 1014.73 1015.26 1015.46 1015.30 1014.84 1014.21 1013.57 1013.10 1012.94 1013.13 1013.69 1014.52 1015.50 1016.47 1017.30 1017.91 1018.26 1018.38 1018.35 1018.27 1018.22 1018.26 1018.39 1018.59 1018.80 1018.94 1018.97 1018.84 1018.56 1018.18 1017.75 1017.36 1017.04 1016.85
1011.27 1011.26 1011.09 1010.89 1010.81 1010.95 1011.38 1012.11 1013.05 1014.03 1014.89 1015.48 1015.71 1015.55 1015.06 1014.40 1013.74 1013.27 1013.12 1013.35 1013.96 1014.84 1015.87 1016.88 1017.73 1018.33 1018.67 1018.78 1018.75 1018.68 1018.66 1018.74 1018.93 1019.18 1019.43 1019.60 1019.61 1019.44 1019.09 1018.62 1018.09 1017.60 1017.20 1016.94
1011.37 1011.26 1010.99 1010.71 1010.56 1010.70 1011.16 1011.96 1012.97 1014.04 1014.97 1015.62 1015.89 1015.75 1015.28 1014.62 1013.98 1013.53 1013.41 1013.68 1014.33 1015.25 1016.31 1017.32 1018.17 1018.75 1019.07 1019.16 1019.12 1019.05 1019.04 1019.14 1019.36 1019.65 1019.93 1020.11 1020.12 1019.93 1019.54 1019.01 1018.43 1017.86 1017.40 1017.07
1011.23 1011.06 1010.74 1010.43 1010.30 1010.46 1010.99 1011.86 1012.95 1014.09 1015.10 1015.80 1016.11 1016.00 1015.56 1014.93 1014.32 1013.91 1013.83 1014.13 1014.81 1015.75 1016.80 1017.81 1018.63 1019.19 1019.48 1019.54 1019.47 1019.37 1019.35 1019.45 1019.67 1019.96 1020.24 1020.42 1020.44 1020.24 1019.84 1019.29 1018.68 1018.09 1017.58 1017.21
1010.88 1010.70 1010.40 1010.13 1010.06 1010.32 1010.94 1011.90 1013.07 1014.28 1015.34 1016.08 1016.42 1016.34 1015.93 1015.34 1014.77 1014.39 1014.34 1014.67 1015.36 1016.29 1017.33 1018.32 1019.11 1019.63 1019.88 1019.90 1019.79 1019.66 1019.60 1019.66 1019.84 1020.09 1020.35 1020.51 1020.52 1020.33 1019.94 1019.41 1018.81 1018.22 1017.71 1017.32
1010.38 1010.24 1010.01 1009.85 1009.92 1010.30 1011.05 1012.11 1013.37 1014.63 1015.72 1016.48 1016.83 1016.77 1016.38 1015.82 1015.28 1014.93 1014.90 1015.24 1015.91 1016.83 1017.85 1018.79 1019.55 1020.04 1020.26 1020.25 1020.10 1019.91 1019.79 1019.78 1019.88 1020.07 1020.26 1020.39 1020.38 1020.19 1019.83 1019.34 1018.78 1018.22 1017.74 1017.35
1009.82 1009.75 1009.64 1009.64 1009.87 1010.42 1011.30 1012.47 1013.78 1015.07 1016.16 1016.91 1017.25 1017.19 1016.81 1016.27 1015.75 1015.43 1015.40 1015.73 1016.39 1017.28 1018.26 1019.17 1019.90 1020.37 1020.56 1020.53 1020.34 1020.11 1019.92 1019.82 1019.84 1019.92 1020.03 1020.09 1020.05 1019.85 1019.52 1019.07 1018.58 1018.08 1017.63 1017.28
1009.29 1009.30 1009.33 1009.50 1009.91 1010.62 1011.62 1012.86 1014.20 1015.47 1016.53 1017.24 1017.55 1017.47 1017.10 1016.58 1016.08 1015.77 1015.75 1016.08 1016.71 1017.56 1018.50 1019.38 1020.08 1020.54 1020.73 1020.70 1020.50 1020.24 1019.99 1019.81 1019.72 1019.70 1019.71 1019.69 1019.59 1019.38 1019.07 1018.66 1018.22 1017.79 1017.40 1017.08
1008.83 1008.93 1009.10 1009.43 1009.99 1010.82 1011.90 1013.16 1014.48 1015.69 1016.68 1017.32 1017.58 1017.48 1017.11 1016.62 1016.16 1015.87 1015.87 1016.19 1016.79 1017.60 1018.50 1019.36 1020.05 1020.51 1020.72 1020.71 1020.53 1020.27 1019.98 1019.75 1019.57 1019.45 1019.36 1019.25 1019.09 1018.85 1018.53 1018.16 1017.77 1017.39 1017.05 1016.77
1008.48 1008.65 1008.93 1009.39 1010.05 1010.95 1012.05 1013.26 1014.49 1015.60 1016.47 1017.02 1017.22 1017.11 1016.77 1016.32 1015.92 1015.69 1015.72 1016.04 1016.63 1017.40 1018.27 1019.09 1019.78 1020.26 1020.51 1020.54 1020.41 1020.17 1019.90 1019.63 1019.40 1019.20 1019.02 1018.83 1018.60 1018.33 1018.00 1017.64 1017.28 1016.93 1016.63 1016.38
1008.24 1008.47 1008.82 1009.34 1010.05 1010.93 1011.97 1013.08 1014.16 1015.11 1015.84 1016.29 1016.44 1016.33 1016.04 1015.68 1015.37 1015.23 1015.31 1015.66 1016.24 1016.99 1017.81 1018.61 1019.29 1019.79 1020.08 1020.18 1020.12 1019.95 1019.72 1019.47 1019.22 1018.98 1018.74 1018.49 1018.20 1017.88 1017.53 1017.17 1016.81 1016.49 1016.20 1015.97
1008.10 1008.35 1008.74 1009.27 1009.95 1010.76 1011.67 1012.60 1013.49 1014.25 1014.82 1015.17 1015.29 1015.21 1015.00 1014.77 1014.59 1014.57 1014.75 1015.14 1015.73 1016.45 1017.23 1017.99 1018.65 1019.17 1019.51 1019.68 1019.71 1019.62 1019.46 1019.26 1019.03 1018.78 1018.52 1018.22 1017.90 1017.54 1017.17 1016.79 1016.43 1016.10 1015.81 1015.58
1008.05 1008.30 1008.69 1009.19 1009.79 1010.47 1011.19 1011.91 1012.57 1013.13 1013.54 1013.79 1013.89 1013.87 1013.79 1013.71 1013.71 1013.83 1014.12 1014.58 1015.18 1015.88 1016.62 1017.33 1017.96 1018.47 1018.84 1019.08 1019.19 1019.20 1019.13 1019.00 1018.82 1018.61 1018.34 1018.04 1017.69 1017.31 1016.91 1016.52 1016.14 1015.80 1015.50 1015.25
1008.08 1008.33 1008.68 1009.11 1009.59 1010.11 1010.62 1011.10 1011.53 1011.88 1012.14 1012.32 1012.42 1012.48 1012.54 1012.63 1012.81 1013.11 1013.52 1014.05 1014.67 1015.35 1016.04 1016.69 1017.27 1017.77 1018.15 1018.43 1018.62 1018.72 1018.74 1018.70 1018.60 1018.43 1018.19 1017.90 1017.55 1017.17 1016.76 1016.34 1015.95 1015.59 1015.27 1015.00
1008.20 1008.43 1008.73 1009.07 1009.41 1009.74 1010.04 1010.29 1010.49 1010.65 1010.78 1010.89 1011.01 1011.16 1011.36 1011.64 1012.01 1012.46 1013.00 1013.60 1014.25 1014.90 1015.54 1016.13 1016.65 1017.11 1017.49 1017.80 1018.04 1018.22 1018.33 1018.37 1018.33 1018.22 1018.04 1017.77 1017.44 1017.06 1016.66 1016.24 1015.83 1015.46 1015.12 1014.81
1008.43 1008.62 1008.85 1009.08 1009.28 1009.43 1009.51 1009.54 1009.54 1009.54 1009.55 1009.61 1009.76 1009.99 1010.33 1010.77 1011.31 1011.91 1012.56 1013.23 1013.89 1014.53 1015.11 1015.64 1016.11 1016.53 1016.89 1017.21 1017.49 1017.72 1017.89 1018.00 1018.04 1017.98 1017.84 1017.62 1017.32 1016.96 1016.56 1016.15 1015.74 1015.36 1015.00 1014.66
1008.76 1008.88 1009.02 1009.13 1009.18 1009.15 1009.05 1008.90 1008.73 1008.58 1008.50 1008.54 1008.70 1009.01 1009.46 1010.03 1010.70 1011.42 1012.16 1012.88 1013.56 1014.18 1014.72 1015.20 1015.63 1016.01 1016.36 1016.68 1016.98 1017.25 1017.46 1017.62 1017.70 1017.70 1017.60 1017.41 1017.14 1016.81 1016.43 1016.04 1015.64 1015.25 1014.88 1014.52
1009.14 1009.16 1009.19 1009.16 1009.06 1008.88 1008.62 1008.31 1008.01 1007.76 1007.62 1007.63 1007.81 1008.17 1008.69 1009.36 1010.12 1010.92 1011.72 1012.49 1013.18 1013.79 1014.32 1014.77 1015.17 1015.54 1015.88 1016.21 1016.52 1016.81 1017.05 1017.24 1017.35 1017.37 1017.30 1017.14 1016.90 1016.59 1016.24 1015.87 1015.49 1015.10 1014.72 1014.35
1009.53 1009.41 1009.28 1009.11 1008.86 1008.53 1008.13 1007.71 1007.32 1007.01 1006.83 1006.83 1007.02 1007.42 1007.99 1008.71 1009.52 1010.37 1011.21 1012.00 1012.71 1013.33 1013.86 1014.32 1014.72 1015.09 1015.45 1015.79 1016.11 1016.42 1016.67 1016.87 1016.99 1017.02 1016.96 1016.82 1016.60 1016.32 1015.99 1015.64 1015.27 1014.90 1014.52 1014.13
1009.84 1009.55 1009.24 1008.89 1008.48 1008.02 1007.52 1007.03 1006.58 1006.25 1006.07 1006.08 1006.29 1006.71 1007.31 1008.06 1008.89 1009.76 1010.62 1011.42 1012.15 1012.79 1013.34 1013.83 1014.27 1014.67 1015.05 1015.42 1015.77 1016.08 1016.35 1016.54 1016.66 1016.69 1016.63 1016.48 1016.27 1016.00 1015.69 1015.36 1015.01 1014.65 1014.27 1013.88
1010.00 1009.49 1008.98 1008.45 1007.89 1007.31 1006.73 1006.20 1005.75 1005.44 1005.29 1005.33 1005.59 1006.04 1006.66 1007.42 1008.26 1009.13 1010.00 1010.81 1011.55 1012.22 1012.81 1013.34 1013.83 1014.28 1014.70 1015.11 1015.48 1015.81 1016.07 1016.26 1016.37 1016.38 1016.31 1016.16 1015.95 1015.68 1015.38 1015.06 1014.73 1014.37 1014.00 1013.61
1009.95 1009.22 1008.49 1007.77 1007.06 1006.39 1005.78 1005.24 1004.83 1004.57 1004.50 1004.61 1004.93 1005.43 1006.08 1006.85 1007.69 1008.56 1009.42 1010.24 1011.00 1011.69 1012.32 1012.90 1013.44 1013.94 1014.41 1014.85 1015.24 1015.58 1015.85 1016.03 1016.12 1016.12 1016.03 1015.87 1015.66 1015.39 1015.10 1014.78 1014.45 1014.10 1013.73 1013.34
1009.67 1008.71 1007.78 1006.89 1006.07 1005.33 1004.70 1004.21 1003.87 1003.71 1003.74 1003.96 1004.36 1004.93 1005.62 1006.42 1007.26 1008.13 1008.98 1009.80 1010.56 1011.28 1011.94 1012.55 1013.12 1013.66 1014.17 1014.63 1015.04 1015.39 1015.65 1015.83 1015.91 1015.90 1015.80 1015.64 1015.41 1015.15 1014.85 1014.53 1014.20 1013.85 1013.47 1013.08
1009.16 1008.01 1006.91 1005.89 1004.98 1004.21 1003.61 1003.19 1002.96 1002.93 1003.09 1003.44 1003.95 1004.60 1005.35 1006.18 1007.04 1007.90 1008.74 1009.55 1010.31 1011.02 1011.69 1012.31 1012.90 1013.46 1013.97 1014.44 1014.85 1015.19 1015.45 1015.62 1015.69 1015.68 1015.59 1015.42 1015.21 1014.94 1014.65 1014.32 1013.98 1013.62 1013.23 1012.83
1008.45 1007.17 1005.95 1004.85 1003.91 1003.16 1002.62 1002.29 1002.19 1002.31 1002.62 1003.10 1003.73 1004.47 1005.29 1006.15 1007.03 1007.89 1008.72 1009.50 1010.24 1010.93 1011.58 1012.18 1012.75 1013.29 1013.78 1014.23 1014.62 1014.94 1015.19 1015.36 1015.44 1015.44 1015.36 1015.21 1015.00 1014.75 1014.46 1014.13 1013.78 1013.40 1012.99 1012.57
1007.59 1006.25 1005.00 1003.89 1002.97 1002.28 1001.82 1001.62 1001.66 1001.92 1002.37 1002.98 1003.71 1004.54 1005.41 1006.30 1007.19 1008.04 1008.85 1009.60 1010.30 1010.95 1011.55 1012.10 1012.62 1013.10 1013.55 1013.95 1014.31 1014.61 1014.84 1015.00 1015.10 1015.12 1015.07 1014.95 1014.77 1014.54 1014.25 1013.92 1013.56 1013.16 1012.73 1012.27
Thickness
5751 5734 5725 5733 5740 5740 5739 5735 5732 5741 5757 5751 5743 5740 5746 5752 5750 5747 5747 5746 5743 5743 5744 5744 5741 5739 5734 5730 5726 5723 5719 5715 5712 5707 5702 5698 5694 5692 5689 5687 5685 5683 5680 5677
5732 5728 5745 5752 5751 5747 5742 5733 5732 5742 5754 5749 5739 5738 5745 5748 5747 5747 5744 5741 5739 5738 5737 5736 5734 5731 5728 5723 5719 5716 5713 5709 5705 5701 5697 5693 5689 5685 5682 5679 5676 5675 5672 5669
5729 5742 5759 5753 5745 5741 5739 5735 5735 5737 5745 5748 5737 5726 5732 5740 5744 5744 5744 5742 5740 5737 5733 5732 5730 5726 5722 5718 5713 5709 5705 5702 5698 5695 5691 5687 5682 5677 5674 5671 5668 5666 5664 5662
5740 5755 5756 5749 5745 5744 5731 5749 5748 5742 5728 5717 5726 5701 5719 5729 5732 5734 5736 5736 5736 5736 5732 5728 5724 5719 5715 5711 5706 5703 5699 5695 5691 5688 5685 5680 5674 5669 5667 5664 5660 5658 5657 5654
5742 5756 5753 5747 5752 5753 5745 5756 5748 5740 5724 5712 5715 5702 5708 5723 5720 5726 5731 5733 5733 5732 5730 5725 5721 5715 5711 5706 5702 5697 5693 5689 5686 5682 5679 5674 5669 5665 5661 5657 5653 5651 5649 5647
5754 5767 5764 5762 5768 5766 5760 5747 5737 5724 5709 5695 5708 5700 5700 5713 5721 5727 5730 5731 5730 5729 5726 5722 5717 5710 5704 5700 5696 5691 5686 5682 5679 5676 5673 5669 5664 5659 5654 5650 5646 5643 5642 5640
5739 5753 5766 5771 5756 5756 5749 5720 5696 5690 5682 5688 5709 5702 5703 5724 5733 5733 5731 5730 5727 5724 5719 5714 5709 5703 5698 5693 5688 5684 5679 5675 5673 5670 5667 5663 5658 5654 5649 5645 5641 5638 5635 5634
5717 5722 5752 5762 5753 5742 5740 5723 5693 5680 5678 5687 5703 5696 5708 5729 5733 5734 5732 5728 5722 5717 5713 5708 5703 5698 5693 5687 5682 5676 5672 5669 5666 5663 5660 5657 5653 5649 5645 5641 5637 5634 5631 5629
5716 5721 5754 5764 5766 5755 5737 5724 5721 5698 5693 5683 5688 5698 5712 5724 5723 5722 5721 5719 5715 5712 5708 5702 5698 5692 5687 5682 5676 5672 5667 5664 5660 5657 5654 5651 5647 5643 5639 5636 5633 5629 5626 5624
5730 5720 5740 5756 5759 5754 5746 5733 5710 5694 5679 5671 5683 5692 5695 5709 5712 5714 5713 5712 5709 5706 5702 5697 5692 5687 5681 5676 5671 5667 5664 5659 5656 5652 5649 5646 5642 5638 5634 5630 5627 5624 5622 5619
5732 5714 5722 5732 5730 5729 5733 5724 5710 5694 5687 5671 5666 5682 5716 5714 5713 5712 5712 5711 5706 5701 5697 5692 5688 5683 5678 5672 5667 5663 5659 5654 5651 5648 5645 5641 5636 5632 5629 5625 5622 5620 5617 5615
5727 5709 5701 5717 5735 5742 5734 5723 5707 5687 5683 5680 5671 5682 5722 5717 5715 5712 5709 5707 5703 5698 5694 5688 5683 5678 5672 5668 5663 5659 5655 5650 5647 5644 5640 5635 5631 5627 5624 5620 5618 5615 5613 5611
5720 5700 5686 5693 5707 5722 5722 5722 5713 5697 5683 5675 5669 5681 5714 5712 5708 5707 5704 5701 5697 5692 5688 5682 5676 5672 5668 5663 5659 5655 5652 5648 5644 5640 5635 5630 5626 5623 5620 5617 5614 5612 5610 5608
5720 5695 5685 5680 5687 5703 5707 5714 5713 5697 5676 5676 5681 5686 5698 5699 5698 5698 5697 5695 5692 5687 5683 5677 5671 5667 5663 5660 5656 5652 5648 5645 5640 5635 5631 5626 5623 5620 5617 5615 5612 5610 5608 5605
5703 5688 5694 5697 5705 5707 5706 5708 5708 5700 5693 5683 5689 5690 5695 5697 5697 5696 5694 5690 5687 5682 5678 5673 5668 5664 5660 5656 5652 5649 5645 5642 5637 5632 5627 5624 5621 5618 5615 5613 5610 5608 5605 5603
5689 5682 5685 5688 5700 5699 5698 5705 5704 5701 5699 5694 5692 5690 5699 5700 5697 5692 5688 5686 5681 5678 5675 5671 5666 5661 5657 5654 5650 5646 5641 5638 5634 5630 5626 5622 5620 5617 5613 5611 5608 5605 5603 5600
5676 5672 5667 5665 5683 5684 5679 5696 5699 5697 5697 5692 5683 5687 5693 5690 5689 5687 5685 5682 5678 5676 5674 5670 5666 5661 5657 5652 5648 5643 5639 5636 5631 5628 5624 5621 5618 5615 5612 5610 5606 5603 5601 5599
5671 5663 5653 5654 5664 5655 5682 5703 5703 5695 5693 5691 5688 5687 5688 5688 5687 5686 5683 5678 5675 5673 5671 5668 5664 5659 5654 5650 5646 5642 5637 5633 5629 5626 5623 5620 5617 5614 5611 5608 5605 5602 5600 5597
5676 5662 5649 5645 5647 5658 5680 5693 5692 5685 5680 5685 5683 5682 5682 5681 5680 5678 5681 5679 5675 5672 5669 5666 5663 5658 5652 5647 5644 5639 5634 5631 5627 5624 5621 5619 5616 5613 5610 5606 5603 5601 5598 5596
5671 5661 5648 5643 5641 5643 5665 5688 5697 5687 5668 5682 5681 5676 5674 5673 5662 5666 5675 5675 5673 5671 5667 5663 5660 5655 5649 5645 5641 5636 5631 5628 5625 5623 5620 5618 5615 5612 5609 5606 5603 5600 5598 5595
5647 5646 5642 5638 5636 5648 5669 5683 5685 5657 5656 5675 5677 5673 5669 5666 5665 5669 5672 5670 5669 5667 5665 5662 5657 5652 5647 5643 5639 5633 5630 5626 5625 5622 5620 5617 5615 5612 5609 5606 5603 5600 5597 5594
5632 5631 5633 5632 5629 5637 5666 5670 5660 5655 5665 5668 5668 5668 5666 5666 5667 5667 5667 5665 5664 5661 5659 5657 5652 5648 5645 5642 5637 5632 5628 5627 5624 5622 5619 5616 5614 5612 5610 5605 5602 5599 5596 5593
5632 5631 5627 5629 5633 5648 5656 5657 5660 5659 5658 5660 5661 5664 5664 5662 5662 5662 5662 5661 5659 5658 5655 5653 5649 5645 5642 5640 5637 5631 5629 5627 5623 5620 5618 5616 5614 5612 5609 5605 5602 5598 5596 5592
5632 5636 5629 5628 5639 5646 5650 5653 5656 5656 5655 5657 5658 5660 5661 5659 5659 5657 5657 5656 5655 5653 5651 5648 5646 5642 5639 5638 5636 5633 5630 5626 5623 5619 5617 5615 5612 5610 5608 5605 5603 5599 5596 5593
5626 5625 5621 5623 5633 5639 5646 5648 5649 5651 5653 5654 5655 5656 5656 5656 5655 5654 5653 5653 5653 5651 5649 5647 5644 5642 5639 5637 5634 5633 5630 5626 5622 5619 5616 5614 5612 5610 5608 5606 5603 5601 5599 5598
5625 5619 5615 5619 5630 5627 5634 5643 5646 5645 5646 5648 5649 5650 5653 5653 5653 5652 5651 5651 5651 5649 5647 5645 5643 5641 5639 5636 5633 5631 5630 5626 5622 5619 5616 5614 5612 5610 5608 5605 5604 5605 5603 5602